AirNav  
 
 345 users online  

T94 Twin-Oaks Airport
San Antonio, Texas, USA

GOING TO SAN ANTONIO?


FAA INFORMATION EFFECTIVE 26 APRIL 2018

Location

FAA Identifier: T94
Lat/Long: 29-34-12.6730N / 098-28-06.2010W
29-34.211217N / 098-28.103350W
29.5701869 / -98.4683892
(estimated)
Elevation: 873 ft. / 266 m (estimated)
Variation: 07E (1985)
From city: 3 miles N of SAN ANTONIO, TX
Time zone: UTC -5 (UTC -6 during Standard Time)
Zip code: 78232

Airport Operations

Airport use: Open to the public
Activation date: 03/1964
Control tower: no
ARTCC: HOUSTON CENTER
FSS: SAN ANGELO FLIGHT SERVICE STATION
NOTAMs facility: SJT (NOTAM-D service available)
Attendance: UNATNDD
Wind indicator: yes
Segmented circle: no

Airport Communications

CTAF: 122.9
WX ASOS at SAT (2.2 nm S): PHONE 210-805-5583
WX ASOS at SSF (14 nm S): PHONE 210-927-9391
WX AWOS-3 at 5C1 (15 nm NW): 118.725 (830-755-9099)

Nearby radio navigation aids

VOR radial/distance  VOR name  Freq  Var
SATr177/4.4SAN ANTONIO VORTAC116.8008E
RNDr283/10.0RANDOLPH VORTAC112.3005E
SSFr347/(18.8)STINSON VOR108.4009E

 
NDB name  Hdg/Dist  Freq  Var  ID
ALAMO109/5.736804EAN .- -.
DEVINE037/35.735907EHHH .... .... ....
HONDO064/38.632908EHMA .... -- .-

Airport Services

Parking: hangars and tiedowns
Airframe service: MINOR
Powerplant service: MINOR
Bulk oxygen: NONE

Runway Information

Runway 12/30

Dimensions: 2225 x 30 ft. / 678 x 9 m
Surface: asphalt, in fair condition
Weight bearing capacity: 
Single wheel: 4.0
Runway edge markings: RY NUMBERS 10 FT TALL; CNTRLN STRIPE 20 FT LONG WITH 20 FT SPACES.
RUNWAY 12  RUNWAY 30
Gradient: 1.9%1.9%
Traffic pattern: leftleft
Markings: NSTD, in good conditionNSTD, in good condition
Obstructions: 65 ft. trees, 200 ft. from runway
+6 FT FENCE 30 FT L; ACES ROAD 50 FT R; BLDGS 60-100 FT L OF EXTDD CNTRLN; +30 FT TREE 17 FT FM RY END; +30-50 FT TREES FM THLD TO 200 FT FM THLD ACRS APCH; 5 FT FENCE 23 FT FM THLD ACRS APCH; 15 FT ROAD 34 FT FM THLD ACRS APCH.
34 ft. tree, 200 ft. from runway
6 FT FENCE 40 FT EAST OF RY; 5 FT FENCE 23 FT FM THLD ACROSS APPROACH; 13 FT ROAD 33 FT FM THLD ACROSS APPROACH.

Airport Ownership and Management from official FAA records

Ownership: Privately-owned
Owner: TWIN OAKS AIR PARK
630 HEIMER RD
SAN ANTONIO, TX 78232
Phone 210-494-3928
Manager: SHIRLEY FOWLER
630 HEIMER RD
SAN ANTONIO, TX 78232
Phone 210-494-3928

Airport Operational Statistics

Aircraft based on the field: 12
Single engine airplanes: 12
    
Aircraft operations: avg 48/month *
87% local general aviation
13% transient general aviation
* for 12-month period ending 12 May 2017

Additional Remarks

HGRS, TREES, BLDGS WITHIN 50' OF RWY.
RESIDENTAL HOUSES, HANGARS AND TREES OBSTRUCT RY PRIM SFC NORTHEAST OF RY.
ARPT CLSD AT NIGHT TO TRANSIENT ACFT.
WOODEN FENCE LCTD APRXLY 70 FT EAST OF RY ENTIRE LENGTH OF RY.
COORD ARR & DEP WITH SAN ANTONIO INTL ATCT.
FOR CD CTC SAT APCH AT 210-805-5516.

Instrument Procedures

There are no published instrument procedures at T94.

Some nearby airports with instrument procedures:

KSAT - San Antonio International Airport (2 nm S)
KRND - Randolph Air Force Base (10 nm E)
KSKF - Kelly Field Airport (13 nm SW)
KSSF - Stinson Municipal Airport (14 nm S)
5C1 - Boerne Stage Field Airport (15 nm NW)
 
Loc | Ops | Rwys | IFR | FBO | Links
Com | Nav | Svcs | Stats | Notes

AirNav Hotels Sweepstakes
 
Area around T94 (Twin-Oaks Airport)
 
Road maps at: MapQuest Bing Google
 
Aerial photo
WARNING: Photo may not be current or correct
Aerial photo of T94 (Twin-Oaks Airport)
Do you have a better or more recent aerial photo of Twin-Oaks Airport that you would like to share? If so, please send us your photo.

 
Sectional chart

 
Airport distance calculator
Flying to Twin-Oaks Airport? Find the distance to fly.

From to T94

Sunrise and sunset
Times for 27-Apr-2018
 Local
(UTC-5)
 Zulu
(UTC)
Morning civil twilight06:3111:31
Sunrise06:5611:56
Sunset20:0701:07
Evening civil twilight20:3201:32

Current date and time
Zulu (UTC)  27-Apr-2018 06:53:02
Local (UTC-5)  27-Apr-2018 01:53:02
 
METAR
KSAT 
2nm S 
270551Z 06003KT 10SM OVC250 17/11 A2999 RMK AO2 SLP140 T01720111 10233 20167 402440133 51006
KRND 
11nm E 
270556Z AUTO 07003KT 10SM CLR 15/12 A2998 RMK AO2 SLP148 T01480121 10223 20148 402360132 50003
KSKF 
13nm SW 
270556Z AUTO 10005KT 10SM CLR 18/12 A2996 RMK AO2 SLP141 T01770117 10236 20177 402440144 50007 $
KSSF 
14nm S 
270553Z AUTO 00000KT 10SM CLR 17/13 A2996 RMK AO2 SLP139 T01720128 10250 20167 402560150 50005
K5C1 
15nm NW 
270635Z AUTO 00000KT 10SM CLR 12/11 A3002 RMK AO1
TAF
KSAT 
2nm S 
270533Z 2706/2812 12003KT P6SM OVC250 FM270900 VRB03KT P6SM BKN050 FM271500 03007KT P6SM SCT050 BKN250 FM280000 12003KT P6SM SCT050 BKN250
KRND 
11nm E 
261700Z 2617/2723 02006KT 9999 BKN040 QNH3002INS BECMG 2620/2621 02006KT 9999 FEW050 QNH2995INS BECMG 2705/2706 VRB06KT 9999 BKN030 QNH3007INS BECMG 2714/2715 01012G18KT 9999 FEW030 SCT070 QNH3009INS TX25/2621Z TN13/2712Z LAST NO AMDS AFT 2700 NEXT 2709
KSKF 
13nm SW 
270200Z 2702/2808 VRB06KT 9999 FEW150 QNH2990INS BECMG 2715/2716 03010G15KT 9999 FEW050 QNH3000INS BECMG 2803/2804 VRB06KT 9999 FEW280 QNH3006INS TX27/2721Z TN14/2712Z
KSSF 
14nm S 
270533Z 2706/2806 13005KT P6SM BKN250 FM270900 VRB03KT P6SM BKN050 FM271500 04006KT P6SM SCT050 BKN250 FM280000 10003KT P6SM SCT050 BKN250
NOTAMs
Click for the latest NOTAMs
NOTAMs are issued by the DoD/FAA and will open in a separate window not controlled by AirNav.

 

 
 

Would you like to see your business listed on this page?

 If your business provides an interesting product or service to pilots, flight crews, aircraft, or users of the Twin-Oaks Airport, you should consider listing it here.  To start the listing process, click on the button below
 
Add a business
 

Other Pages about Twin-Oaks Airport

Update a link
 
Copyright © AirNav, LLC. All rights reserved. Privacy Policy  Contact